{"data":{"norad_id":48408,"epoch":"2026-09-20T04:45:49.608576Z","epoch_age_seconds":59703,"freshness":"FRESH","line1":"1 48408U 21038BH  26263.19849084 -.00000325  00000+0  12920-5 0  9999","line2":"2 48408  53.1609 147.9435 0001738 137.8204 222.2931 15.31729117297238","mean_motion":15.31729117,"eccentricity":0.0001738,"inclination_deg":53.1609,"raan_deg":147.9435,"arg_perigee_deg":137.8204,"mean_anomaly_deg":222.2931,"bstar":1.292e-6,"rev_number":29723,"period_min":94.011400842229,"perigee_km":469.4628806019,"apogee_km":471.84352007554,"semimajor_km":6848.7902003387,"source":"CELESTRAK","updated_at":"2026-09-20T09:00:38.948342Z"}}